TimeCDT,TemperatureF,Dew PointF,Humidity,Sea Level PressureIn,VisibilityMPH,Wind Direction,Wind SpeedMPH,Gust SpeedMPH,PrecipitationIn,Events,Conditions,WindDirDegrees,DateUTC
12:53 AM,60.1,53.1,78,30.20,10.0,NNW,4.6,-,N/A,,Clear,330,2013-08-04 05:53:00
1:53 AM,60.1,50.0,69,30.22,10.0,NNW,3.5,-,N/A,,Clear,340,2013-08-04 06:53:00
2:53 AM,59.0,50.0,72,30.21,10.0,NNE,4.6,-,N/A,,Clear,20,2013-08-04 07:53:00
3:53 AM,55.9,50.0,80,30.19,10.0,Calm,Calm,-,N/A,,Clear,0,2013-08-04 08:53:00
4:53 AM,55.0,48.9,80,30.18,10.0,North,3.5,-,N/A,,Clear,10,2013-08-04 09:53:00
5:53 AM,55.0,50.0,83,30.19,10.0,North,4.6,-,N/A,,Clear,10,2013-08-04 10:53:00
6:53 AM,57.9,51.1,78,30.19,10.0,NE,3.5,-,N/A,,Clear,50,2013-08-04 11:53:00
7:53 AM,61.0,53.1,75,30.21,10.0,East,3.5,-,N/A,,Clear,90,2013-08-04 12:53:00
8:53 AM,64.9,51.1,61,30.23,10.0,SE,3.5,-,N/A,,Clear,140,2013-08-04 13:53:00
9:53 AM,66.0,53.1,63,30.21,10.0,ESE,4.6,-,N/A,,Clear,110,2013-08-04 14:53:00
10:53 AM,68.0,54.0,61,30.19,10.0,East,5.8,-,N/A,,Clear,100,2013-08-04 15:53:00
11:53 AM,69.1,55.9,63,30.18,10.0,ENE,3.5,-,N/A,,Clear,70,2013-08-04 16:53:00
12:53 PM,69.1,55.9,63,30.17,10.0,ENE,4.6,-,N/A,,Overcast,60,2013-08-04 17:53:00
1:53 PM,71.1,55.9,59,30.17,10.0,NE,3.5,-,N/A,,Overcast,40,2013-08-04 18:53:00
2:53 PM,72.0,55.9,57,30.15,10.0,ESE,4.6,-,N/A,,Mostly Cloudy,120,2013-08-04 19:53:00
3:53 PM,73.9,54.0,50,30.14,10.0,ESE,4.6,-,N/A,,Clear,120,2013-08-04 20:53:00
4:53 PM,73.0,52.0,48,30.13,10.0,SSW,8.1,-,N/A,,Partly Cloudy,210,2013-08-04 21:53:00
5:53 PM,72.0,53.1,51,30.11,10.0,SSW,5.8,-,N/A,,Overcast,210,2013-08-04 22:53:00
6:53 PM,72.0,52.0,49,30.09,10.0,SSE,4.6,-,N/A,,Overcast,150,2013-08-04 23:53:00
7:53 PM,71.1,53.1,53,30.06,10.0,ESE,4.6,-,N/A,,Clear,120,2013-08-05 00:53:00
8:53 PM,66.9,54.0,63,30.04,10.0,SE,9.2,-,N/A,,Clear,130,2013-08-05 01:53:00
9:53 PM,66.0,54.0,65,30.04,10.0,ESE,4.6,-,N/A,,Clear,120,2013-08-05 02:53:00
10:53 PM,64.9,55.0,70,30.04,10.0,ESE,4.6,-,N/A,,Partly Cloudy,110,2013-08-05 03:53:00
11:53 PM,63.0,55.0,75,30.00,10.0,ESE,6.9,-,N/A,,Clear,120,2013-08-05 04:53:00